Regional Weather Roundup
Issued by NWS Cleveland, OH

Home | Current Version | Previous Version | Graphics & Text | Print | Product List | Glossary On
Versions: 1 2 3 4 5 6 7 8 9 10 11 12 13 14 15 16 17 18 19 20 21 22 23 24 25 26 27 28 29 30 31 32 33 34 35 36 37 38 39 40 41 42 43 44 45 46 47 48 49 50
000
ASUS41 KCLE 191712
RWRCLE
OHIO REGIONAL WEATHER ROUNDUP
NATIONAL WEATHER SERVICE WILMINGTON, OH
1200 PM EST FRI JAN 19 2018

NOTE: "FAIR" INDICATES FEW OR NO CLOUDS BELOW 12,000 FEET WITH NO
SIGNIFICANT WEATHER AND/OR OBSTRUCTIONS TO VISIBILITY.

OHZ001>008-015>018-024>027-034-035-043-044-191800-
   NORTHWEST OHIO

CITY           SKY/WX    TMP DP  RH WIND       PRES   REMARKS
DEFIANCE       FAIR      30  16  56 SW16      30.00F WCI  19
FINDLAY        FAIR      31  16  54 SW20      30.01F WCI  19
TOLEDO EXPRESS FAIR      32  19  58 SW12G21   29.98S WCI  23
TOLEDO EXEC    FAIR      30  18  60 SW21G29   30.00S WCI  17
LIMA           FAIR      29  17  61 SW15      30.03F WCI  18
$$

OHZ009>014-019>023-028>033-038-089-191800-
   NORTHEAST OHIO

CITY           SKY/WX    TMP DP  RH WIND       PRES   REMARKS
CLE-HOPKINS    FAIR      32  16  51 SW16      30.03F WCI  21
CLE-LAKEFRONT  FAIR      33  16  49 S17       30.00F WCI  22
CUY CO. ARPT   SUNNY     36  18  48 SW12G17   30.01F
LORAIN-ELYRIA  FAIR      31  14  49 SW20      30.01F WCI  19
ASHTABULA      FAIR      29  16  58 S12       30.00F WCI  19
AKRON-CANTON   FAIR      28  14  55 SW17      30.04F WCI  16
WOOSTER        FAIR      28  14  55 SW16      30.04F WCI  16
MANSFIELD      FAIR      30  16  56 S18       30.02F WCI  18
YOUNGSTOWN     FAIR      29  14  53 S16G23    30.03F WCI  17
$$

OHZ042-051>053-060>062-070>072-077>081-191800-
  SOUTHWEST OHIO

CITY           SKY/WX    TMP DP  RH WIND       PRES   REMARKS
CINC-COVINGTON FAIR      30  17  58 S12       30.14F WCI  20
CINC-LUNKEN    FAIR      32  17  54 S15       30.17F WCI  22
HAMILTON       FAIR      35  17  47 SW8       30.14F WCI  29
DAYTON         FAIR      29  17  61 SW14      30.09F WCI  18
WRIGHT-PAT AFB FAIR      31  10  41 S14       30.09F WCI  20
DAYTON GENERAL FAIR      30  15  53 SW15      30.10F WCI  19
WILMINGTON     FAIR      29  16  58 S14       30.10F WCI  18
$$

OHZ036-037-039>041-045>050-054>059-063>069-073>076-082>088-191800-
  CENTRAL AND SOUTHEAST OHIO

CITY           SKY/WX    TMP DP  RH WIND       PRES   REMARKS
COLUMBUS       FAIR      28  15  58 SW16      30.12F WCI  16
OSU AIRPORT    FAIR      28  16  60 S14       30.10F WCI  17
BOLTON FIELD   SUNNY     28  16  59 SW14G23   30.12F WCI  17
RICKENBACK AFB FAIR      29  15  58 SW15      30.13F WCI  17
NEWARK         FAIR      29  14  53 SW15      30.11F WCI  18
MARION         FAIR      26  15  63 S18       30.06F WCI  13
LANCASTER      FAIR      30  15  53 S9        30.13F WCI  22
ZANESVILLE     FAIR      31  13  47 S12       30.12F WCI  22
NEW PHILLY     FAIR      31  14  49 SW7       30.10F WCI  24
$$




USA.gov is the U.S. government's official web portal to all federal, state and local government web resources and services.